Location: Campillo
(40.8621°N, 4.2488°W)
Time: 12:48:14
(UTC+00:00)

Milstar 3 - Pass Details

Date: 11 May 2021
Orbit: 1089 x 5155 km, 28.3° (Epoch: 08 May)

Event Time Altitude Azimuth Distance (km) Brightness Sun altitude
Rises 21:51:41 0° 251° (WSW) 7,057 7.2 -22.5°
Reaches altitude 10° 21:57:27 10° 245° (WSW) 5,368 6.4 -23.1°
Maximum altitude 22:09:32 40° 182° (S) 2,325 4.0 -24.4°
Enters shadow 22:10:46 38° 166° (SSE) 2,265 3.9 -24.5°
